Flag for U.S.A. Weather past 2 weeks in Salem, Oregon, U.S.A.

Now
75 °F

Scattered clouds.


Feels Like: 78 °F
Forecast: 58 / 68 °F
Wind: No wind

Location: McNary Field

Current Time: Jul 22, 2014 at 8:53:04 PM

Latest Report: Jul 22, 2014 at 7:56 PM


Visibility: 10 mi

Pressure: 29.97 "Hg

Humidity: 55%

Dew point: 58 °F

Location of SalemLocation

Historic Weather in Salem — Graph

°F

Salem temperature yesterday

Maximum temperature yesterday: 79 °F (at 4:56 PM)
Minimum temperature yesterday: 57 °F (at 5:56 AM)
Average temperature yesterday: 68 °F

Past Weeks' High & Low Weather Summary

 TemperatureHumidityPressure
High96 °F (Jul 16, 4:56 PM)90% (Jul 11, 5:56 AM)30.14 "Hg (Jul 11, 5:56 AM)
Low53 °F (Jul 10, 5:56 AM)21% (Jul 16, 5:56 PM)29.82 "Hg (Jul 10, 5:56 PM)
Average72 °F57%29.99 "Hg
* Reported Jul 7 7:56 PM — Jul 22 7:56 PM, Salem, Weather by CustomWeather, © 2014

Note: Actual official high and low records may vary slightly from our data, if they occured in-between our weather recording intervals... More about our weather records

Advertising

Salem weather history for previous 24 hours

 ConditionsComfort  
Time TempWeatherWind HumidityBarometerVisibility
7:56 PM
Jul 22
75 °FScattered clouds.No wind55%29.97 "Hg10 mi
6:56 PM75 °FPassing clouds.No wind55%29.97 "Hg10 mi
5:56 PM73 °FScattered clouds.No wind59%29.98 "Hg10 mi
4:56 PM73 °FOvercast.6 mph66%29.99 "Hg10 mi
9:56 AM66 °FMore clouds than sun.3 mph75%30.04 "Hg10 mi
8:56 AM62 °FOvercast.3 mph83%30.04 "Hg10 mi
7:56 AM61 °FMostly cloudy.No wind87%30.03 "Hg10 mi
6:56 AM61 °FMostly cloudy.No wind90%30.02 "Hg10 mi
5:56 AM60 °FLight rain. Overcast.No wind86%30.02 "Hg10 mi
4:56 AM60 °FLight rain. Mostly cloudy.3 mph80%30.01 "Hg10 mi
3:56 AM63 °FLight rain. Mostly cloudy.5 mph81%30.00 "Hg10 mi
2:56 AM65 °FOvercast.7 mph66%30.00 "Hg10 mi
1:56 AM66 °FLight rain. Overcast.6 mph61%30.01 "Hg10 mi
12:56 AM68 °FMostly cloudy.8 mph57%30.00 "Hg10 mi
11:56 PM
Jul 21
69 °FMostly cloudy.7 mph57%30.00 "Hg10 mi
10:56 PM69 °FOvercast.5 mph55%29.99 "Hg10 mi
9:56 PM71 °FPassing clouds.7 mph53%29.98 "Hg10 mi
8:56 PM75 °FSunny.8 mph45%29.95 "Hg10 mi
Weather by CustomWeather, © 2014

See weather overviewHow to use our weather pages